TimeCST,TemperatureF,Dew PointF,Humidity,Sea Level PressureIn,VisibilityMPH,Wind Direction,Wind SpeedMPH,Gust SpeedMPH,PrecipitationIn,Events,Conditions,WindDirDegrees,DateUTC
12:04 AM,35.6,33.8,93,29.86,1.8,South,3.5,-,N/A,,Overcast,190,2013-02-22 06:04:00
12:17 AM,35.6,33.8,93,29.87,0.5,Calm,Calm,-,N/A,Fog,Fog,0,2013-02-22 06:17:00
12:53 AM,34.0,34.0,100,29.89,0.5,SSW,6.9,-,N/A,Fog,Fog,200,2013-02-22 06:53:00
1:15 AM,33.8,33.8,100,29.89,0.2,SW,6.9,-,N/A,Fog,Fog,220,2013-02-22 07:15:00
1:45 AM,33.8,33.8,100,29.90,0.5,WSW,10.4,-,N/A,Fog,Fog,250,2013-02-22 07:45:00
1:53 AM,34.0,33.1,96,29.90,0.5,WSW,9.2,-,N/A,Fog,Fog,240,2013-02-22 07:53:00
2:03 AM,33.8,33.8,100,29.90,0.2,SW,8.1,-,N/A,Fog,Fog,230,2013-02-22 08:03:00
2:15 AM,33.8,33.8,100,29.90,0.5,SW,10.4,-,N/A,Fog,Fog,230,2013-02-22 08:15:00
2:53 AM,33.1,33.1,100,29.93,0.5,WSW,9.2,-,N/A,Fog,Fog,240,2013-02-22 08:53:00
3:20 AM,33.8,33.8,100,29.94,0.8,WSW,10.4,-,N/A,,Mist,250,2013-02-22 09:20:00
3:29 AM,33.8,32.0,93,29.95,1.2,West,11.5,-,N/A,,Overcast,270,2013-02-22 09:29:00
3:53 AM,33.1,32.0,96,29.95,1.0,WSW,8.1,-,N/A,,Mist,250,2013-02-22 09:53:00
4:35 AM,33.8,32.0,93,29.95,3.0,West,3.5,-,N/A,,Mostly Cloudy,260,2013-02-22 10:35:00
4:49 AM,33.8,32.0,93,29.96,3.0,South,6.9,-,N/A,,Mostly Cloudy,190,2013-02-22 10:49:00
4:51 AM,33.8,32.0,93,29.95,2.5,SSW,6.9,-,N/A,,Mostly Cloudy,200,2013-02-22 10:51:00
4:53 AM,33.1,32.0,96,29.96,2.0,SSW,5.8,-,N/A,,Mostly Cloudy,210,2013-02-22 10:53:00
5:00 AM,33.8,32.0,93,29.95,3.0,SW,4.6,-,N/A,,Scattered Clouds,220,2013-02-22 11:00:00
5:09 AM,33.8,32.0,93,29.95,4.0,SW,5.8,-,N/A,,Mostly Cloudy,220,2013-02-22 11:09:00
5:13 AM,33.8,33.8,100,29.95,1.8,SSW,4.6,-,N/A,,Mostly Cloudy,210,2013-02-22 11:13:00
5:21 AM,33.8,33.8,100,29.95,0.5,South,5.8,-,N/A,Fog,Fog,180,2013-02-22 11:21:00
5:35 AM,33.8,32.0,93,29.96,0.2,SSW,5.8,-,N/A,Fog,Fog,210,2013-02-22 11:35:00
5:44 AM,33.8,33.8,100,29.96,0.5,SSW,4.6,-,N/A,Fog,Fog,210,2013-02-22 11:44:00
5:53 AM,33.1,32.0,96,29.96,0.5,SW,5.8,-,N/A,Fog,Fog,220,2013-02-22 11:53:00
6:32 AM,33.8,33.8,100,29.98,0.8,SW,6.9,-,N/A,,Mist,230,2013-02-22 12:32:00
6:42 AM,33.8,33.8,100,29.99,1.5,WSW,9.2,-,N/A,,Overcast,240,2013-02-22 12:42:00
6:47 AM,33.8,33.8,100,29.99,3.0,WSW,9.2,-,N/A,,Overcast,240,2013-02-22 12:47:00
6:53 AM,34.0,33.1,96,29.99,2.5,WSW,10.4,-,N/A,,Overcast,240,2013-02-22 12:53:00
7:00 AM,33.8,33.8,100,29.99,4.0,WSW,9.2,-,N/A,,Overcast,240,2013-02-22 13:00:00
7:53 AM,34.0,34.0,100,30.03,7.0,West,8.1,-,N/A,,Mostly Cloudy,260,2013-02-22 13:53:00
8:05 AM,35.6,33.8,93,30.03,9.0,West,8.1,-,N/A,,Partly Cloudy,270,2013-02-22 14:05:00
8:53 AM,37.9,35.1,89,30.06,10.0,WSW,11.5,-,N/A,,Scattered Clouds,250,2013-02-22 14:53:00
9:41 AM,39.2,35.6,87,30.06,10.0,WSW,12.7,-,N/A,,Mostly Cloudy,250,2013-02-22 15:41:00
9:53 AM,39.9,35.1,83,30.06,10.0,West,12.7,-,N/A,,Mostly Cloudy,260,2013-02-22 15:53:00
10:15 AM,39.2,35.6,87,30.06,10.0,WSW,11.5,-,N/A,,Scattered Clouds,250,2013-02-22 16:15:00
10:53 AM,39.9,35.1,83,30.06,10.0,West,12.7,-,N/A,,Partly Cloudy,270,2013-02-22 16:53:00
11:53 AM,43.0,37.0,80,30.06,10.0,West,11.5,-,N/A,,Scattered Clouds,260,2013-02-22 17:53:00
12:02 PM,42.8,35.6,76,30.06,10.0,West,11.5,-,N/A,,Mostly Cloudy,260,2013-02-22 18:02:00
12:53 PM,43.0,36.0,76,30.05,10.0,West,9.2,-,N/A,,Overcast,280,2013-02-22 18:53:00
1:53 PM,44.1,36.0,73,30.04,10.0,WSW,11.5,-,N/A,,Overcast,250,2013-02-22 19:53:00
2:53 PM,43.0,34.0,71,30.02,10.0,WNW,9.2,28.8,N/A,,Mostly Cloudy,300,2013-02-22 20:53:00
3:07 PM,44.6,35.6,71,30.02,10.0,WNW,10.4,-,N/A,,Scattered Clouds,290,2013-02-22 21:07:00
3:53 PM,45.0,34.0,65,30.02,10.0,West,9.2,-,N/A,,Mostly Cloudy,270,2013-02-22 21:53:00
4:29 PM,44.6,33.8,66,30.02,10.0,NW,9.2,-,N/A,,Scattered Clouds,310,2013-02-22 22:29:00
4:53 PM,43.0,33.1,68,30.03,10.0,WNW,6.9,-,N/A,,Partly Cloudy,290,2013-02-22 22:53:00
5:53 PM,41.0,30.9,67,30.06,10.0,NNW,4.6,-,N/A,,Clear,330,2013-02-22 23:53:00
6:53 PM,39.0,30.0,70,30.08,10.0,NW,3.5,-,N/A,,Clear,310,2013-02-23 00:53:00
7:53 PM,37.9,30.0,73,30.09,10.0,NW,5.8,-,N/A,,Clear,320,2013-02-23 01:53:00
8:53 PM,37.0,28.9,73,30.11,10.0,NW,6.9,-,N/A,,Clear,320,2013-02-23 02:53:00
9:53 PM,36.0,28.9,76,30.11,10.0,NW,6.9,-,N/A,,Clear,320,2013-02-23 03:53:00
10:53 PM,35.1,28.0,76,30.11,10.0,NW,4.6,-,N/A,,Clear,320,2013-02-23 04:53:00
11:53 PM,34.0,27.0,75,30.10,10.0,NW,4.6,-,N/A,,Clear,310,2013-02-23 05:53:00